When you browse on this site, cookies collect data to enhance your experience and personalize the content and advertising you see.
Visit our Privacy Policy to learn more. By continuing to use the site, you agree to this use of cookies and data.
  • In Spain
  • List of Countries
  • For 7 days
  • Water Temperature
  • Satellite Maps
  • Weather Map
  • Weather Widgets
  • user-avatar
    Login

    Hourly Weather Shibenik

    Today, 21 April, Sunday

    Time Temperature Precipitation Wind Pressure Humidity
    00:00 +9°C° 0 mm 1 mps 749 mmHg 70%
    01:00 +7°C° 0 mm 0 mps 748 mmHg 67%
    02:00 +7°C° 0 mm 0 mps 748 mmHg 68%
    03:00 +6°C° 0 mm 0 mps 748 mmHg 69%
    04:00 +6°C° 0 mm 0 mps 747 mmHg 70%
    05:00 +7°C° 0 mm 0 mps 747 mmHg 68%
    06:00 +9°C° 0 mm 0 mps 747 mmHg 66%
    07:00 +10°C° 0 mm 0 mps 747 mmHg 61%
    08:00 +13°C° 0 mm 0 mps 747 mmHg 55%
    09:00 +16°C° 0 mm 1 mps 747 mmHg 48%
    10:00 +20°C° 0 mm 1 mps 747 mmHg 42%
    11:00 +21°C° 0 mm 1 mps 747 mmHg 38%
    12:00 +22°C° 0 mm 1 mps 746 mmHg 35%
    13:00 +24°C° 0 mm 1 mps 746 mmHg 32%
    14:00 +24°C° 0 mm 1 mps 746 mmHg 33%
    15:00 +23°C° 0 mm 1 mps 745 mmHg 33%
    16:00 +22°C° 0 mm 1 mps 745 mmHg 34%
    17:00 +20°C° 0 mm 1 mps 744 mmHg 41%
    18:00 +16°C° 0 mm 1 mps 744 mmHg 49%
    19:00 +14°C° 0 mm 1 mps 744 mmHg 56%
    20:00 +13°C° 0 mm 1 mps 744 mmHg 59%
    21:00 +12°C° 0 mm 1 mps 744 mmHg 62%
    22:00 +11°C° 0 mm 1 mps 744 mmHg 64%
    23:00 +11°C° 0 mm 1 mps 744 mmHg 68%

    Tomorrow, 22 April, Monday

    Time Temperature Precipitation Wind Pressure Humidity
    00:00 +10°C° 0 mm 1 mps 744 mmHg 72%
    01:00 +10°C° 0 mm 1 mps 743 mmHg 76%
    02:00 +9°C° 0 mm 1 mps 743 mmHg 79%
    03:00 +9°C° 0 mm 1 mps 743 mmHg 82%
    04:00 +9°C° 0 mm 1 mps 743 mmHg 85%
    05:00 +10°C° 0 mm 1 mps 742 mmHg 81%
    06:00 +11°C° 0 mm 1 mps 742 mmHg 78%
    07:00 +13°C° 0 mm 1 mps 742 mmHg 74%
    08:00 +15°C° 0 mm 1 mps 741 mmHg 64%
    09:00 +19°C° 0 mm 1 mps 741 mmHg 54%
    10:00 +21°C° 0 mm 1 mps 741 mmHg 44%
    11:00 +22°C° 0 mm 1 mps 741 mmHg 40%
    12:00 +23°C° 0 mm 2 mps 740 mmHg 37%
    13:00 +24°C° 0 mm 2 mps 740 mmHg 34%
    14:00 +24°C° 0 mm 1 mps 739 mmHg 35%
    15:00 +24°C° 0 mm 1 mps 739 mmHg 36%
    16:00 +24°C° 0 mm 1 mps 738 mmHg 37%
    17:00 +21°C° 0 mm 1 mps 738 mmHg 46%
    18:00 +19°C° 0 mm 1 mps 737 mmHg 55%
    19:00 +16°C° 0 mm 1 mps 737 mmHg 64%
    20:00 +15°C° 0 mm 1 mps 737 mmHg 66%
    21:00 +15°C° 0 mm 1 mps 737 mmHg 68%
    22:00 +14°C° 0 mm 1 mps 737 mmHg 70%
    23:00 +14°C° 0 mm 1 mps 737 mmHg 70%

    Day after tomorrow, 23 April, Tuesday

    Time Temperature Precipitation Wind Pressure Humidity
    00:00 +13°C° 0 mm 1 mps 737 mmHg 71%
    01:00 +13°C° 0 mm 1 mps 737 mmHg 71%
    02:00 +12°C° 1.3 mm 1 mps 736 mmHg 79%
    03:00 +12°C° 1.3 mm 2 mps 736 mmHg 86%
    04:00 +10°C° 1.3 mm 2 mps 736 mmHg 94%
    05:00 +12°C° 0 mm 2 mps 736 mmHg 93%
    06:00 +12°C° 0 mm 2 mps 736 mmHg 91%
    07:00 +12°C° 0 mm 2 mps 736 mmHg 90%
    08:00 +14°C° 0 mm 2 mps 736 mmHg 82%
    09:00 +16°C° 0 mm 2 mps 736 mmHg 73%
    10:00 +18°C° 0 mm 2 mps 736 mmHg 65%
    11:00 +19°C° 0.1 mm 2 mps 736 mmHg 66%
    12:00 +20°C° 0.1 mm 1 mps 736 mmHg 67%
    13:00 +20°C° 0.1 mm 1 mps 736 mmHg 68%
    14:00 +20°C° 0.9 mm 1 mps 736 mmHg 71%
    15:00 +19°C° 0.9 mm 2 mps 735 mmHg 73%
    16:00 +20°C° 0.9 mm 2 mps 735 mmHg 76%
    17:00 +18°C° 0.4 mm 2 mps 735 mmHg 79%
    18:00 +18°C° 0.4 mm 1 mps 735 mmHg 82%
    19:00 +15°C° 0.4 mm 1 mps 736 mmHg 86%
    20:00 +15°C° 0.2 mm 1 mps 736 mmHg 87%
    21:00 +15°C° 0.2 mm 2 mps 737 mmHg 88%
    22:00 +14°C° 0.2 mm 2 mps 737 mmHg 89%
    23:00 +14°C° 0.1 mm 2 mps 738 mmHg 90%

    24 April, Wednesday

    Time Temperature Precipitation Wind Pressure Humidity
    00:00 +13°C° 0.1 mm 2 mps 738 mmHg 90%
    01:00 +13°C° 0.1 mm 2 mps 738 mmHg 91%
    02:00 +13°C° 0.1 mm 2 mps 739 mmHg 91%
    03:00 +12°C° 0.1 mm 1 mps 739 mmHg 92%
    04:00 +12°C° 0.1 mm 1 mps 739 mmHg 92%
    05:00 +13°C° 0 mm 1 mps 740 mmHg 90%
    06:00 +14°C° 0 mm 1 mps 740 mmHg 88%
    07:00 +15°C° 0 mm 1 mps 741 mmHg 86%
    08:00 +17°C° 0.1 mm 2 mps 741 mmHg 77%
    09:00 +19°C° 0.1 mm 3 mps 742 mmHg 68%
    10:00 +21°C° 0.1 mm 3 mps 742 mmHg 60%
    11:00 +21°C° 0.7 mm 3 mps 742 mmHg 61%
    12:00 +22°C° 0.7 mm 4 mps 743 mmHg 63%
    13:00 +22°C° 0.7 mm 4 mps 743 mmHg 64%
    14:00 +22°C° 0.2 mm 4 mps 742 mmHg 61%
    15:00 +22°C° 0.2 mm 3 mps 742 mmHg 58%
    16:00 +24°C° 0.2 mm 3 mps 742 mmHg 55%
    17:00 +21°C° 0 mm 2 mps 742 mmHg 63%
    18:00 +19°C° 0 mm 2 mps 742 mmHg 71%
    19:00 +18°C° 0 mm 1 mps 742 mmHg 79%
    20:00 +16°C° 0 mm 1 mps 742 mmHg 82%
    21:00 +15°C° 0 mm 1 mps 743 mmHg 86%
    22:00 +14°C° 0 mm 1 mps 743 mmHg 89%
    23:00 +13°C° 0 mm 1 mps 743 mmHg 90%

    25 April, Thursday

    Time Temperature Precipitation Wind Pressure Humidity
    00:00 +13°C° 0 mm 1 mps 743 mmHg 91%
    01:00 +12°C° 0 mm 1 mps 743 mmHg 92%
    02:00 +12°C° 0 mm 1 mps 743 mmHg 91%
    03:00 +12°C° 0 mm 1 mps 743 mmHg 90%
    04:00 +12°C° 0 mm 1 mps 743 mmHg 88%
    05:00 +13°C° 0 mm 1 mps 743 mmHg 84%
    06:00 +14°C° 0 mm 1 mps 743 mmHg 80%
    07:00 +15°C° 0 mm 1 mps 743 mmHg 76%
    08:00 +18°C° 0 mm 1 mps 743 mmHg 69%
    09:00 +19°C° 0 mm 0 mps 744 mmHg 63%
    10:00 +21°C° 0 mm 0 mps 744 mmHg 56%
    11:00 +22°C° 0 mm 0 mps 744 mmHg 54%
    12:00 +23°C° 0 mm 0 mps 744 mmHg 51%
    13:00 +25°C° 0 mm 0 mps 743 mmHg 48%
    14:00 +26°C° 0 mm 1 mps 743 mmHg 49%
    15:00 +26°C° 0 mm 1 mps 743 mmHg 49%
    16:00 +26°C° 0 mm 1 mps 742 mmHg 49%
    17:00 +24°C° 0 mm 1 mps 742 mmHg 58%
    18:00 +22°C° 0 mm 1 mps 742 mmHg 67%
    19:00 +17°C° 0 mm 0 mps 742 mmHg 75%
    20:00 +18°C° 0 mm 1 mps 742 mmHg 78%
    21:00 +18°C° 0 mm 1 mps 742 mmHg 81%
    22:00 +16°C° 0 mm 1 mps 742 mmHg 84%
    23:00 +15°C° 0 mm 1 mps 742 mmHg 87%

    26 April, Friday

    Time Temperature Precipitation Wind Pressure Humidity
    00:00 +14°C° 0 mm 1 mps 742 mmHg 89%
    01:00 +14°C° 0 mm 1 mps 742 mmHg 91%
    02:00 +13°C° 0 mm 1 mps 741 mmHg 91%
    03:00 +13°C° 0 mm 1 mps 741 mmHg 91%
    04:00 +13°C° 0 mm 1 mps 741 mmHg 90%
    05:00 +14°C° 0 mm 1 mps 741 mmHg 86%
    06:00 +15°C° 0 mm 1 mps 741 mmHg 81%
    07:00 +16°C° 0 mm 1 mps 741 mmHg 77%
    08:00 +19°C° 0 mm 1 mps 741 mmHg 70%
    09:00 +21°C° 0 mm 2 mps 741 mmHg 64%
    10:00 +24°C° 0 mm 3 mps 741 mmHg 57%
    11:00 +25°C° 0.1 mm 4 mps 741 mmHg 53%
    12:00 +25°C° 0.1 mm 4 mps 741 mmHg 49%
    13:00 +26°C° 0.1 mm 5 mps 741 mmHg 45%
    14:00 +25°C° 0 mm 5 mps 740 mmHg 45%
    15:00 +25°C° 0 mm 5 mps 740 mmHg 44%
    16:00 +23°C° 0 mm 5 mps 740 mmHg 44%
    17:00 +21°C° 0 mm 4 mps 740 mmHg 51%
    18:00 +18°C° 0 mm 3 mps 740 mmHg 57%
    19:00 +16°C° 0 mm 2 mps 740 mmHg 63%
    20:00 +15°C° 0 mm 2 mps 740 mmHg 67%
    21:00 +14°C° 0 mm 1 mps 741 mmHg 70%
    22:00 +13°C° 0 mm 1 mps 741 mmHg 74%
    23:00 +13°C° 0.3 mm 2 mps 742 mmHg 77%
    Show more